THOR 5

Last updated on Wed Sep 17 2025 00:02:46 GMT+0000 (Coordinated Universal Time)

1 32487U 08006A 25259.58347201 -.00000028 00000+0 00000+0 0 9990 2 32487 0.0380 249.8666 0002844 309.8350 5.3816 1.00272411 64577
UTC large
Height (km)
Speed (km/s)
/
Latitude / Longitude
Inclination (degrees)
Orbital Period (minutes)
Azimuth
Elevation
Range (km)
Doppler Factor

Next 0 passes for location: London (51.5072 / 0.1276)

Sorry there are no passes over London.